Location: A�t Lahcen
(32.8243°N, 5.4246°W)
Time: 00:48:44
(UTC+00:00)

Cosmos 1340 - Pass Details

Date: 27 January 2021
Orbit: 500 x 504 km, 81.2° (Epoch: 26 February)

Event Time Altitude Azimuth Distance (km) Brightness Sun altitude
Exits shadow 06:16:33 20° 309° (NW) 1,206 4.0 -13.5°
Maximum altitude 06:18:13 28° 267° (W) 963 3.5 -13.1°
Drops below altitude 10° 06:21:27 10° 207° (SSW) 1,703 5.2 -12.5°
Sets 06:23:45 0° 196° (SSW) 2,583 6.2 -12.0°
